This is the latest recevied weather packets stored in our database for station/object KA3ZXO. If no packets are shown the sender has not sent any weather packets the latest 1 day(s).
| Time | Temp. | Humidity | Pressure | Rain* | Wind** | Luminosity | Snow |
|---|---|---|---|---|---|---|---|
| 1778024572 | 26.11° C | 39% | 1010.7 hPa | 0 mm | 0 m/s | 6 W/m² | - |
| 1778023967 | 26.11° C | 39% | 1010.6 hPa | 0 mm | 0 m/s | 13 W/m² | - |
| 1778023367 | 26.67° C | 38% | 1010.7 hPa | 0 mm | 0.45 m/s, 194° | 19 W/m² | - |
| 1778022762 | 26.67° C | 37% | 1010.8 hPa | 0 mm | 0 m/s | 26 W/m² | - |
| 1778022162 | 26.67° C | 37% | 1010.8 hPa | 0 mm | 0.45 m/s, 185° | 26 W/m² | - |
| 1778021562 | 26.67° C | 36% | 1010.6 hPa | 0 mm | 0.45 m/s, 138° | 37 W/m² | - |
| 1778020961 | 26.67° C | 36% | 1010.7 hPa | 0 mm | 0 m/s | 30 W/m² | - |
| 1778020360 | 27.22° C | 36% | 1010.6 hPa | 0 mm | 0 m/s | 34 W/m² | - |
| 1778019759 | 27.78° C | 35% | 1010.5 hPa | 0 mm | 0.45 m/s, 297° | 46 W/m² | - |
| 1778019159 | 27.78° C | 35% | 1010.6 hPa | 0 mm | 1.34 m/s, 136° | 110 W/m² | - |
| 1778018553 | 27.78° C | 34% | 1010.5 hPa | 0 mm | 0.45 m/s, 215° | 126 W/m² | - |
| 1778017949 | 28.33° C | 34% | 1010.5 hPa | 0 mm | 0.45 m/s, 221° | 103 W/m² | - |
| 1778017343 | 28.33° C | 33% | 1010.6 hPa | 0 mm | 0.45 m/s, 177° | 71 W/m² | - |
| 1778016738 | 28.89° C | 32% | 1010.5 hPa | 0 mm | 0.45 m/s, 196° | 126 W/m² | - |
| 1778016137 | 28.89° C | 32% | 1010.5 hPa | 0 mm | 0.89 m/s, 99° | 224 W/m² | - |
| 1778015537 | 28.89° C | 31% | 1010.3 hPa | 0 mm | 0.45 m/s, 183° | 141 W/m² | - |
| 1778014936 | 28.89° C | 32% | 1010.5 hPa | 0 mm | 1.34 m/s, 211° | 213 W/m² | - |
| 1778014332 | 28.89° C | 30% | 1010.3 hPa | 0 mm | 0.45 m/s, 190° | 249 W/m² | - |
| 1778013732 | 30.56° C | 31% | 1010.3 hPa | 0 mm | 0.89 m/s, 183° | 294 W/m² | - |
| 1778013132 | 29.44° C | 32% | 1010.4 hPa | 0 mm | 0.45 m/s, 189° | 397 W/m² | - |
| 1778012529 | 29.44° C | 32% | 1010.4 hPa | 0 mm | 0 m/s | 430 W/m² | - |
| 1778011927 | 29.44° C | 33% | 1010.5 hPa | 0 mm | 0 m/s | 421 W/m² | - |
| 1778011324 | 30° C | 33% | 1010.9 hPa | 0 mm | 0.45 m/s, 186° | 483 W/m² | - |
| 1778010723 | 29.44° C | 33% | 1010.9 hPa | 0 mm | 0 m/s | 476 W/m² | - |
| 1778010122 | 29.44° C | 34% | 1011.1 hPa | 0 mm | 0 m/s | 510 W/m² | - |
* Rain latest hour (hover to see other rain measurements)
** Current wind speed in m/s (hover to see current wind gust speed)